EW9087 Weather Reports


time (UTC)temp
C
wind
direction
speed
KPH
gust
KPH
rain 1hr
cm
rain 24hr
cm
rain mn
cm
humidity
%
barometer
mb
20260504081517 10 190 11.3 19.3 0.00 0.00 0.00 78 977.8
20260504044558 8 184 8.0 12.9 0.00 0.00 0.00 83 979.8
20260504043052 8 180 8.0 14.5 0.00 0.00 0.00 83 979.9
20260504041545 8 175 8.0 11.3 0.00 0.00 0.00 85 980.0
20260504040054 8 169 1.6 4.8 0.00 0.00 0.00 85 980.1
20260504034555 8 169 3.2 9.7 0.00 0.00 0.00 84 980.3
20260504033054 8 174 3.2 11.3 0.00 0.00 0.00 83 980.4
20260504031539 8 165 4.8 9.7 0.00 0.00 0.00 82 980.4
20260504030044 8 168 6.4 11.3 0.00 0.00 0.00 82 980.7
20260504024536 8 155 6.4 12.9 0.00 0.00 0.00 82 980.8
20260504023040 8 133 8.0 12.9 0.00 0.00 0.00 82 980.8
20260504021535 8 150 6.4 12.9 0.00 0.00 0.00 82 980.9
20260504020037 8 138 8.0 14.5 0.00 0.00 0.00 83 980.9
20260504014544 9 158 8.0 16.1 0.00 0.00 0.00 83 980.7
20260504013038 9 144 8.0 14.5 0.00 0.00 0.00 82 980.8
20260504011532 9 151 9.7 19.3 0.00 0.00 0.00 82 980.8
20260504010031 10 150 11.3 17.7 0.00 0.00 0.00 81 980.9
20260504004535 10 153 11.3 22.5 0.00 0.00 0.00 80 980.9
20260504003034 10 153 11.3 22.5 0.00 0.00 0.00 80 981.0
20260504001529 10 154 9.7 19.3 0.00 0.00 0.00 80 981.0
20260504000028 10 160 11.3 22.5 0.00 0.00 0.00 79 981.2
20260503234537 10 178 11.3 20.9 0.00 0.00 0.00 80 981.4
20260503233025 10 146 12.9 22.5 0.00 0.00 0.00 80 981.5
20260503231524 10 169 12.9 20.9 0.00 0.00 0.00 81 981.6
20260503230021 10 146 14.5 20.9 0.00 0.00 0.00 81 981.9
20260503224520 10 157 9.7 17.7 0.00 0.00 0.00 81 982.1
20260503223018 10 155 9.7 24.1 0.00 0.00 0.00 83 982.2
20260503221517 9 158 11.3 19.3 0.00 0.00 0.00 84 982.3
20260503220017 9 161 12.9 22.5 0.00 0.00 0.00 84 982.3
20260503214515 9 161 12.9 22.5 0.00 0.00 0.00 83 982.5
20260503213015 9 177 12.9 20.9 0.00 0.00 0.00 83 982.7
20260503211513 9 190 11.3 22.5 0.00 0.00 0.00 83 982.9
20260503210010 9 168 9.7 20.9 0.00 0.00 0.00 82 983.4
20260503204509 9 184 11.3 22.5 0.00 0.00 0.00 81 983.8
20260503203009 10 245 20.9 38.6 0.00 0.00 0.00 77 984.4
20260503201506 10 237 30.6 46.7 0.00 0.00 0.00 74 984.5
20260503200006 11 240 38.6 56.3 0.00 0.00 0.00 69 984.7
20260503194505 12 219 29.0 49.9 0.00 0.00 0.00 64 984.6
20260503193008 13 231 35.4 45.1 0.00 0.00 0.00 59 984.3
20260503191504 15 256 27.4 41.8 0.00 0.00 0.00 54 984.3
20260503190003 15 230 29.0 45.1 0.00 0.00 0.00 52 984.3
20260503184507 15 217 22.5 40.2 0.00 0.00 0.00 52 984.3
20260503183002 15 242 24.1 43.5 0.00 0.00 0.00 50 984.3
20260503181502 15 220 25.7 45.1 0.00 0.00 0.00 50 984.5
20260503180059 15 207 27.4 40.2 0.00 0.00 0.00 50 984.8
20260503174558 15 227 30.6 41.8 0.00 0.00 0.00 51 985.0
20260503173117 15 215 19.3 43.5 0.00 0.00 0.00 52 985.1
20260503171552 15 221 20.9 40.2 0.00 0.00 0.00 53 985.3